Wind_Speed
20 17 16 16 17 17 16 15 15 16 16 16 15 14 13 13 12 12 13 14 11 12 12 8 12 11 10 15 14 11 12 14 18 18 7 16 15 5 7 16 7 5 14 26 24
20 19 19 17 15 16 17 17 16 15 16 17 15 15 14 13 14 16 17 19 17 15 10 10 14 13 16 15 13 13 12 19 15 11 9 15 17 10 14 13 14 19 22 24 24
19 19 19 20 18 16 16 17 18 17 16 15 15 14 13 12 12 3 12 14 15 17 13 11 12 13 19 21 18 17 17 13 2 9 6 14 20 17 15 13 18 21 27 25 23
20 20 19 19 19 18 16 16 17 17 17 15 14 14 11 6 5 3 3 6 9 11 12 12 14 18 18 19 20 19 14 13 6 6 15 10 9 12 17 15 17 21 24 26 24
23 21 19 18 18 19 17 16 16 16 17 16 14 12 9 7 14 13 9 4 2 5 11 13 16 18 20 19 22 13 20 7 4 10 15 19 14 8 11 14 19 21 22 22 21
25 23 20 20 19 18 17 16 16 15 15 15 13 10 6 15 6 13 6 7 6 6 10 13 15 15 22 18 17 17 25 11 13 13 9 16 15 17 14 17 18 20 22 21 20
25 22 20 20 20 17 15 15 15 14 13 12 11 8 10 19 6 7 7 7 10 9 9 11 12 11 9 16 19 15 14 10 14 16 10 15 16 12 22 21 21 22 22 20 19
25 23 21 20 20 18 13 13 13 13 12 11 10 4 10 8 9 11 11 9 10 10 9 7 9 14 20 17 6 15 17 16 19 17 15 21 19 14 23 27 26 24 21 20 18
26 25 22 20 19 17 12 11 11 11 11 10 7 5 9 9 7 7 11 11 11 11 11 10 8 16 16 17 14 16 19 23 19 21 12 19 15 18 22 25 25 24 23 21 18
27 26 24 21 19 14 11 9 9 11 11 8 9 8 11 6 5 5 8 13 11 11 11 14 12 12 16 16 21 20 22 22 25 18 20 21 16 18 21 23 24 24 23 21 19
29 27 25 21 17 11 8 8 6 5 10 13 1 11 2 3 7 7 9 12 14 13 15 18 14 19 22 23 24 25 25 26 27 21 22 22 22 19 22 22 22 23 23 21 19
31 29 24 20 12 7 12 4 6 7 12 17 24 23 19 10 9 13 11 14 17 16 16 16 19 19 20 22 22 26 27 24 22 16 18 21 22 16 18 21 24 23 22 22 20
32 28 23 17 5 8 8 8 9 7 8 6 11 14 15 14 13 15 16 20 14 17 17 19 17 14 22 21 19 22 26 21 25 14 12 14 19 17 19 21 21 22 22 22 21
32 25 20 12 6 7 2 9 11 4 5 9 6 3 6 8 9 25 19 19 16 17 18 19 17 17 13 20 19 23 22 24 26 15 15 20 16 21 22 20 20 26 27 26 23
32 20 18 13 8 5 8 9 9 4 4 4 6 2 3 11 6 11 22 21 18 16 12 17 13 16 22 22 19 24 22 22 26 23 15 19 18 16 23 21 27 29 30 28 25
27 17 17 13 7 9 9 5 3 3 6 4 3 2 7 12 12 3 13 19 15 20 18 19 15 14 17 16 20 19 19 21 22 21 18 20 20 21 25 28 26 29 33 31 29
24 13 17 12 12 11 3 2 4 4 3 3 4 4 9 11 9 10 13 16 14 13 19 20 22 21 14 16 16 18 16 14 18 17 17 26 26 20 18 29 29 28 35 36 33
20 9 12 10 13 8 4 5 4 1 5 9 10 14 15 10 10 13 15 15 21 22 15 16 19 23 20 24 21 24 20 15 23 18 22 28 28 28 26 28 38 37 38 37 35
16 6 14 12 9 5 8 1 3 9 10 11 17 15 14 12 5 10 13 17 17 19 20 16 21 19 13 20 20 24 22 26 26 24 21 23 21 33 19 25 19 26 37 40 39
18 7 14 10 8 3 6 2 2 6 14 11 8 6 11 10 4 12 13 13 12 17 19 21 22 19 8 15 20 26 21 19 17 26 28 26 28 19 25 22 24 22 32 38 38
14 7 15 9 9 7 2 2 5 9 10 8 13 13 13 14 13 13 13 10 15 14 18 16 17 22 17 21 19 19 21 21 19 20 18 21 22 23 21 25 25 24 33 38 42
14 4 21 13 5 5 1 3 7 9 7 8 8 10 10 14 14 14 15 11 18 18 13 12 8 17 27 19 17 23 24 25 16 22 18 21 20 18 13 12 25 27 34 40 40
12 7 15 12 4 4 6 3 4 8 9 6 5 5 12 13 9 12 16 4 15 16 14 12 7 14 19 18 23 21 24 22 23 21 23 19 21 22 17 10 23 26 28 35 37
10 4 8 13 9 6 7 4 6 4 6 10 6 8 11 13 13 11 16 8 12 18 14 15 11 16 16 21 17 18 23 23 24 17 20 23 26 24 26 14 9 17 23 34 40
9 4 4 4 5 8 6 4 7 6 5 11 2 4 7 7 15 18 12 18 20 18 10 10 11 17 20 25 25 24 24 25 26 26 24 25 31 24 23 15 17 18 21 32 42
6 5 10 15 7 8 0 5 5 7 8 9 8 10 11 13 14 20 21 18 15 12 9 8 10 16 20 20 22 25 25 25 22 29 28 28 28 23 30 31 19 23 22 32 39
5 5 6 8 7 5 5 5 9 12 6 7 10 13 14 14 19 24 27 28 26 22 20 19 13 13 20 19 23 24 27 29 24 22 22 25 24 22 22 19 10 15 24 34 38
Wind_Direction
328 328 321 319 322 323 324 323 325 327 326 325 323 319 314 304 288 284 270 254 240 255 249 259 254 254 251 248 239 250 268 239 239 239 169 152 181 126 83 133 135 168 142 146 146
329 324 320 315 313 312 315 319 322 323 323 323 322 320 321 313 299 277 252 252 249 247 246 257 251 239 243 240 220 232 236 250 241 251 124 174 178 164 152 140 148 113 116 136 144
335 326 316 312 309 307 307 311 315 318 320 320 319 320 322 325 307 192 240 252 249 244 238 257 255 247 254 241 220 228 252 290 190 280 257 190 199 171 173 172 157 149 142 146 148
343 334 325 313 306 302 305 306 306 312 316 317 315 316 315 313 296 269 272 276 257 235 237 245 244 242 241 241 231 233 238 265 271 227 240 175 136 193 187 133 154 153 150 151 155
347 341 334 326 314 300 300 302 302 307 310 311 310 308 315 264 263 270 266 273 287 224 231 234 242 239 245 244 241 224 256 207 238 228 233 170 174 130 121 134 146 151 155 157 158
344 342 338 331 324 313 297 296 298 303 306 309 309 303 299 261 248 258 253 244 234 243 238 232 241 255 265 266 255 228 240 194 213 209 180 178 149 151 160 157 155 160 158 158 158
342 342 335 330 326 321 304 289 294 299 301 305 310 304 266 246 285 255 262 241 234 237 248 238 239 247 236 256 249 263 245 209 204 179 186 171 181 224 159 157 163 165 160 158 160
345 340 335 329 325 323 309 292 291 294 295 301 308 299 264 263 252 258 242 247 236 234 237 247 248 249 256 254 271 221 226 210 209 189 183 190 200 146 168 166 170 167 162 162 163
346 338 337 329 324 321 314 299 290 287 286 289 317 256 269 258 261 250 225 227 229 231 235 242 249 242 237 238 231 215 227 223 205 192 179 207 229 155 178 175 173 172 170 168 163
348 339 336 331 326 328 325 318 302 286 295 277 254 261 247 244 223 233 229 214 221 223 228 228 230 237 225 220 227 222 223 240 224 178 205 203 233 162 185 186 179 178 176 173 171
349 345 337 332 332 346 347 349 298 238 229 232 320 250 232 262 263 244 216 208 218 227 227 207 226 229 231 227 247 252 239 222 248 174 198 219 217 170 183 189 186 185 178 178 172
350 345 341 336 342 8 21 46 37 311 298 257 253 253 252 267 289 236 205 202 209 228 220 237 231 251 248 250 239 245 254 254 233 163 183 217 213 167 190 197 191 188 185 178 169
349 347 346 347 11 17 36 40 346 324 263 270 238 251 247 235 240 242 205 213 221 231 237 235 234 240 241 246 245 248 240 245 251 149 202 227 219 176 194 204 198 200 195 186 180
348 349 353 9 31 5 11 347 341 332 268 152 186 196 192 215 246 229 215 221 230 243 238 250 242 247 242 250 240 243 239 247 256 180 210 218 225 191 193 204 202 200 199 190 187
349 356 2 12 348 2 301 320 330 2 300 103 137 156 188 215 357 202 209 219 237 220 247 230 228 245 231 238 242 248 258 249 242 251 226 205 226 224 189 204 209 201 199 193 191
350 357 4 357 355 321 310 304 338 239 242 143 130 204 213 217 246 120 206 228 238 252 236 251 259 242 253 252 241 263 251 254 258 236 234 223 216 222 211 213 211 203 198 196 193
349 358 10 3 333 324 322 292 243 196 122 94 7 310 303 276 222 222 199 212 220 221 239 240 239 247 225 252 242 221 236 227 232 229 231 209 234 225 230 209 209 200 198 197 195
352 2 7 336 340 338 328 226 212 295 359 357 312 300 273 277 240 239 235 228 215 251 261 240 233 224 226 226 244 214 224 231 231 226 231 228 227 236 220 254 206 200 196 197 194
2 334 354 341 354 337 253 218 296 357 359 321 309 260 263 245 268 305 243 251 249 216 242 262 257 266 228 224 223 241 219 235 246 248 243 236 235 239 238 220 186 198 190 196 193
351 333 350 355 0 330 262 299 360 16 334 312 295 335 306 305 328 286 254 29 345 328 317 252 263 269 250 235 241 233 244 227 236 244 244 241 246 232 224 222 198 193 195 194 193
353 317 346 13 1 264 127 296 342 335 338 322 331 310 301 305 302 284 277 68 13 336 323 294 270 252 255 233 240 225 236 247 242 237 251 251 241 238 244 196 212 199 199 194 195
355 2 343 19 49 16 16 355 315 345 342 326 310 328 322 313 300 280 273 42 15 352 334 334 293 257 246 249 250 251 248 227 240 235 241 248 254 254 310 243 195 214 196 198 195
356 335 354 20 51 27 336 281 340 351 5 352 319 352 318 301 290 268 269 74 19 359 359 343 273 253 246 241 243 247 248 251 232 245 250 240 241 254 264 296 192 197 206 189 191
360 341 354 32 22 360 350 330 326 22 315 335 315 318 333 316 275 275 294 304 344 324 330 306 259 264 260 251 246 230 234 253 254 227 241 251 255 234 244 215 254 199 199 183 189
6 345 358 329 350 336 353 312 325 350 343 310 218 274 345 308 316 281 304 324 311 299 288 331 276 279 281 284 281 285 282 228 239 247 238 236 246 250 254 213 226 230 207 192 193
358 343 329 294 310 295 113 293 336 334 327 308 304 334 308 288 280 287 298 295 294 296 286 313 280 297 290 281 279 276 271 271 244 232 246 249 248 244 255 264 230 206 202 197 197
335 313 301 294 289 295 300 321 294 310 303 269 296 304 294 313 317 302 291 280 272 278 275 283 267 265 270 281 272 256 248 255 261 263 245 247 253 254 248 246 278 199 202 199 196
Height
1531 1529 1528 1525 1523 1521 1520 1518 1516 1513 1511 1508 1506 1504 1503 1500 1499 1498 1497 1498 1496 1494 1495 1496 1499 1499 1498 1495 1493 1490 1485 1472 1463 1460 1456 1465 1472 1478 1484 1491 1495 1497 1498 1506 1514
1529 1526 1524 1523 1521 1519 1517 1515 1513 1511 1509 1507 1505 1502 1501 1498 1496 1493 1494 1491 1492 1492 1494 1496 1495 1495 1494 1490 1488 1486 1479 1465 1455 1453 1457 1467 1470 1485 1487 1495 1499 1500 1505 1510 1516
1527 1525 1522 1519 1517 1517 1515 1512 1511 1509 1507 1505 1503 1501 1500 1497 1495 1489 1489 1488 1488 1490 1491 1494 1494 1493 1489 1484 1482 1481 1477 1462 1461 1464 1464 1471 1474 1482 1484 1492 1498 1503 1505 1512 1517
1526 1522 1519 1517 1514 1512 1511 1510 1508 1506 1504 1503 1502 1500 1498 1498 1492 1487 1487 1487 1486 1487 1492 1492 1492 1489 1485 1478 1477 1476 1471 1468 1467 1471 1470 1470 1479 1486 1484 1488 1497 1504 1508 1511 1516
1524 1521 1517 1514 1511 1509 1507 1506 1505 1503 1502 1500 1499 1498 1497 1497 1491 1485 1487 1487 1486 1487 1490 1489 1488 1485 1478 1474 1471 1471 1469 1471 1475 1476 1470 1474 1485 1491 1493 1496 1500 1505 1509 1513 1516
1523 1519 1515 1512 1508 1506 1504 1503 1501 1500 1499 1498 1497 1496 1496 1495 1487 1486 1486 1487 1488 1488 1487 1488 1485 1483 1477 1473 1468 1467 1470 1471 1476 1476 1474 1479 1486 1493 1498 1500 1504 1507 1509 1513 1517
1521 1517 1513 1509 1506 1503 1500 1499 1499 1497 1497 1496 1495 1494 1495 1488 1485 1485 1484 1486 1487 1487 1486 1486 1485 1486 1479 1475 1471 1470 1469 1471 1473 1475 1477 1482 1494 1490 1495 1498 1505 1508 1510 1514 1518
1520 1515 1511 1507 1503 1500 1498 1497 1496 1495 1494 1493 1493 1494 1489 1483 1482 1481 1483 1484 1485 1486 1486 1486 1485 1484 1480 1475 1472 1471 1469 1470 1467 1470 1474 1481 1476 1487 1495 1496 1499 1504 1509 1514 1518
1519 1514 1509 1505 1501 1497 1495 1494 1493 1492 1492 1492 1493 1495 1485 1479 1479 1480 1481 1482 1483 1484 1484 1484 1484 1481 1478 1474 1472 1463 1462 1463 1457 1465 1471 1477 1472 1486 1494 1494 1496 1501 1506 1511 1516
1519 1513 1508 1503 1499 1496 1494 1492 1491 1490 1490 1490 1492 1495 1480 1478 1478 1478 1479 1480 1481 1481 1482 1483 1480 1474 1471 1465 1464 1458 1461 1451 1453 1461 1468 1473 1470 1483 1491 1491 1494 1499 1504 1508 1513
1518 1512 1507 1502 1498 1495 1493 1494 1494 1491 1490 1482 1480 1477 1477 1477 1476 1476 1477 1478 1479 1478 1474 1474 1472 1464 1461 1458 1453 1448 1444 1447 1439 1440 1460 1464 1469 1481 1487 1489 1494 1497 1500 1505 1510
1516 1510 1505 1501 1498 1497 1495 1497 1499 1499 1488 1478 1476 1475 1475 1477 1476 1473 1475 1476 1475 1471 1469 1468 1465 1460 1457 1454 1451 1450 1447 1439 1434 1434 1452 1459 1461 1477 1487 1487 1490 1494 1499 1502 1508
1515 1509 1504 1500 1498 1499 1500 1499 1498 1497 1491 1470 1471 1471 1473 1475 1472 1469 1471 1470 1467 1467 1462 1461 1454 1454 1458 1453 1455 1450 1450 1448 1442 1448 1455 1456 1464 1473 1484 1488 1490 1493 1497 1501 1506
1513 1508 1504 1501 1502 1500 1502 1499 1497 1495 1481 1461 1466 1466 1469 1470 1466 1464 1465 1468 1465 1462 1458 1454 1454 1455 1459 1458 1456 1456 1447 1449 1442 1450 1462 1456 1468 1463 1474 1483 1485 1488 1492 1496 1502
1513 1508 1505 1501 1503 1504 1502 1498 1497 1496 1484 1460 1463 1467 1466 1465 1461 1455 1461 1464 1460 1458 1459 1452 1454 1454 1453 1453 1454 1452 1448 1445 1444 1441 1452 1452 1462 1448 1461 1474 1471 1479 1486 1492 1499
1513 1509 1506 1505 1505 1503 1498 1497 1499 1491 1484 1457 1460 1461 1462 1461 1459 1457 1461 1463 1461 1458 1452 1452 1447 1451 1449 1449 1451 1449 1450 1449 1442 1442 1452 1453 1456 1443 1442 1450 1463 1473 1479 1487 1494
1513 1510 1506 1506 1505 1499 1498 1501 1492 1495 1459 1460 1463 1462 1459 1455 1452 1454 1456 1458 1457 1462 1456 1449 1446 1446 1453 1453 1448 1448 1459 1461 1459 1445 1446 1433 1442 1430 1417 1429 1444 1457 1470 1479 1488
1512 1510 1510 1508 1503 1500 1502 1496 1499 1469 1467 1470 1471 1467 1460 1448 1447 1448 1450 1449 1449 1449 1444 1439 1441 1435 1439 1443 1442 1440 1447 1450 1458 1446 1438 1423 1426 1410 1416 1422 1428 1442 1460 1472 1481
1511 1512 1512 1506 1502 1501 1502 1491 1489 1483 1492 1486 1471 1459 1452 1447 1453 1446 1445 1442 1439 1439 1450 1442 1435 1422 1425 1432 1441 1436 1436 1432 1437 1426 1425 1414 1406 1407 1408 1415 1425 1435 1449 1461 1472
1513 1513 1511 1505 1502 1503 1496 1500 1493 1505 1502 1492 1478 1464 1461 1448 1455 1454 1445 1450 1448 1443 1440 1434 1441 1428 1427 1432 1429 1431 1423 1436 1431 1443 1437 1415 1409 1405 1404 1408 1414 1429 1439 1452 1466
1518 1513 1511 1507 1503 1501 1501 1500 1507 1507 1506 1498 1486 1480 1476 1469 1464 1462 1451 1468 1469 1461 1455 1444 1439 1433 1428 1426 1427 1427 1428 1423 1419 1420 1425 1419 1403 1388 1389 1397 1408 1418 1431 1444 1457
1521 1518 1515 1508 1511 1515 1514 1514 1515 1508 1506 1502 1499 1496 1489 1483 1474 1468 1460 1464 1479 1472 1462 1458 1445 1433 1425 1419 1418 1418 1413 1417 1420 1423 1411 1409 1401 1388 1389 1387 1396 1411 1419 1432 1450
1527 1524 1520 1514 1516 1520 1517 1512 1513 1512 1511 1509 1506 1505 1502 1497 1489 1471 1467 1476 1481 1478 1481 1474 1446 1437 1427 1420 1415 1414 1410 1408 1408 1412 1412 1411 1404 1393 1391 1394 1395 1404 1413 1425 1445
1533 1530 1527 1525 1525 1521 1518 1513 1513 1514 1514 1514 1511 1508 1507 1498 1488 1480 1474 1476 1481 1486 1488 1479 1458 1442 1425 1415 1407 1411 1409 1408 1404 1411 1412 1404 1396 1390 1392 1393 1397 1399 1408 1420 1437
1538 1536 1536 1528 1529 1524 1521 1519 1515 1515 1518 1515 1510 1509 1511 1508 1499 1492 1485 1488 1485 1485 1484 1482 1464 1448 1433 1421 1411 1407 1405 1397 1404 1399 1402 1398 1395 1391 1388 1390 1396 1400 1408 1417 1428
1541 1541 1537 1530 1528 1524 1523 1523 1519 1520 1522 1517 1515 1514 1514 1511 1507 1501 1496 1493 1489 1486 1479 1483 1474 1458 1448 1437 1426 1418 1409 1398 1390 1391 1390 1389 1386 1389 1390 1387 1389 1395 1404 1412 1422
1542 1542 1540 1533 1525 1522 1521 1520 1521 1521 1519 1518 1518 1516 1510 1508 1508 1506 1504 1502 1497 1492 1487 1485 1475 1461 1453 1440 1428 1421 1408 1398 1391 1385 1388 1389 1384 1386 1386 1386 1391 1395 1401 1407 1417